CST,Max TemperatureF,Mean TemperatureF,Min TemperatureF,Max Dew PointF,MeanDew PointF,Min DewpointF,Max Humidity, Mean Humidity, Min Humidity, Max Sea Level PressureIn, Mean Sea Level PressureIn, Min Sea Level PressureIn, Max VisibilityMiles, Mean VisibilityMiles, Min VisibilityMiles, Max Wind SpeedMPH, Mean Wind SpeedMPH, Max Gust SpeedMPH,PrecipitationIn, CloudCover, Events, WindDirDegrees
2010-11-1,81,68,55,63,58,51,100,70,39,30.18,30.12,30.08,10,8,0,9,3,13,0.00,4,Fog,143
2010-11-2,77,71,64,67,65,63,93,81,69,30.09,30.01,29.93,10,9,2,22,10,30,0.15,7,Rain,105
2010-11-3,69,65,61,66,63,60,93,87,81,29.93,29.87,29.81,10,6,1,21,9,28,1.60,8,Rain-Thunderstorm,54
2010-11-4,67,57,47,61,46,29,97,62,26,29.95,29.82,29.76,10,9,2,26,14,36,0.00,5,,346
2010-11-5,60,50,40,38,33,26,82,55,27,30.24,30.06,29.94,10,10,10,22,9,30,0.00,0,,315
2010-11-6,62,48,34,34,28,22,89,56,22,30.43,30.33,30.25,10,10,10,17,7,22,0.00,0,,343
2010-11-7,62,49,35,37,30,25,92,58,23,30.46,30.38,30.29,10,10,10,13,5,15,0.00,0,,33
2010-11-8,70,53,35,43,36,31,92,59,26,30.26,30.18,30.10,10,10,5,7,1,17,0.00,0,,318
2010-11-9,74,56,38,49,43,38,96,64,31,30.14,30.08,30.03,10,8,3,8,2,,0.00,0,Fog,235
2010-11-10,75,58,40,52,46,40,96,66,35,30.17,30.12,30.06,10,9,5,7,1,10,0.00,3,,7
2010-11-11,79,61,43,49,45,39,93,59,25,30.28,30.24,30.17,10,10,7,8,2,13,0.00,1,,29
2010-11-12,77,64,50,55,50,46,93,67,41,30.30,30.26,30.22,10,10,7,14,4,17,0.00,1,,123
2010-11-13,76,62,48,57,51,46,96,67,38,30.22,30.16,30.08,10,7,0,12,4,16,0.00,3,Fog,141
2010-11-14,76,66,56,65,60,54,100,80,60,30.08,30.02,29.96,10,6,0,14,4,18,0.39,7,Fog-Rain,356
2010-11-15,69,64,59,66,63,58,100,97,93,29.94,29.81,29.71,10,5,0,13,5,21,2.22,8,Fog-Rain-Thunderstorm,197
2010-11-16,72,60,47,64,57,42,93,75,57,30.01,29.77,29.64,10,10,3,18,9,24,0.09,4,Rain,247
2010-11-17,67,54,40,44,41,37,93,64,34,30.20,30.13,30.03,10,10,6,8,3,10,0.00,0,,46
2010-11-18,72,58,43,54,49,40,96,75,53,30.25,30.19,30.13,10,10,10,10,5,,0.00,4,,18
2010-11-19,71,61,51,54,50,47,89,67,44,30.27,30.22,30.18,10,10,8,16,8,20,0.00,5,,72
2010-11-20,75,65,55,60,57,54,100,79,58,30.30,30.24,30.19,10,10,5,10,4,14,T,5,,150
2010-11-21,78,69,59,65,61,56,100,75,50,30.31,30.24,30.19,10,10,5,14,7,21,0.00,4,,121
2010-11-22,79,72,65,68,66,64,100,84,67,30.24,30.18,30.14,10,9,3,18,7,24,0.03,6,Rain,136
2010-11-23,80,72,63,70,66,63,100,81,62,30.17,30.13,30.08,10,6,0,16,6,21,0.00,6,Fog,167
2010-11-24,80,72,64,70,65,58,100,74,48,30.13,30.08,30.00,10,6,0,17,6,23,0.00,5,Fog,149
2010-11-25,80,74,68,70,67,64,93,78,62,30.02,29.96,29.92,10,10,10,20,10,25,0.00,6,,173
2010-11-26,72,55,38,70,55,34,100,93,86,30.16,29.99,29.89,10,8,2,22,11,29,0.32,7,Rain,331
2010-11-27,59,46,33,37,30,26,92,64,35,30.25,30.20,30.17,10,10,10,17,7,22,0.00,0,,8
2010-11-28,61,48,35,41,35,31,89,65,40,30.22,30.16,30.09,10,10,10,15,7,18,0.00,2,,69
2010-11-29,74,62,50,70,62,39,93,77,61,30.08,29.99,29.93,10,9,2,21,11,28,0.04,7,Rain,131
2010-11-30,75,59,42,70,56,34,96,83,70,30.25,30.00,29.88,10,7,1,25,12,35,1.06,8,Rain,288